Location: Dead Woman Crossing
(43.5369°N, 106.3228°W)
Time: 15:27:40
(UTC+00:00)

O/OREOS (USA 219) - Pass Details

Date: 04 July 2022
Orbit: 621 x 646 km, 72.0° (Epoch: 22 May)

Event Time Altitude Azimuth Distance (km) Brightness Sun altitude
Rises 06:40:36 0° 339° (NNW) 2,965 ? -23.3°
Reaches altitude 10° 06:42:55 10° 342° (NNW) 2,052 ? -23.3°
Maximum altitude 06:47:30 64° 64° (ENE) 720 ? -23.4°
Enters shadow 06:48:06 57° 104° (ESE) 763 ? -23.4°
